Location: Chipmunk Meadow
(41.1540°N, 122.8814°W)
Time: 15:43:27
(UTC+00:00)

Cosmos 2278 Rocket - Pass Details

Date: 13 April 2024
Orbit: 839 x 846 km, 71.0° (Epoch: 21 May)

Event Time Altitude Azimuth Distance (km) Brightness Sun altitude
Rises 12:23:10 0° 326° (NW) 3,415 5.3 -13.5°
Reaches altitude 10° 12:25:51 10° 317° (NW) 2,475 4.5 -13.0°
Maximum altitude 12:30:47 31° 256° (WSW) 1,433 2.9 -12.2°
Drops below altitude 10° 12:35:41 10° 196° (SSW) 2,458 4.3 -11.3°
Sets 12:38:22 0° 186° (S) 3,388 5.1 -10.8°
